Погода в железнодорожной станции Гряды

Россия / Новгородская область     58°58′24″N   31°57′41″E
темп.,
°C
ветер,
м/с
пор.,
м/с
влажн.,
%
обл.,
%
осадки,
мм/ч
давл.,
гПа
погр.,
м
17 мая, пн
пн1700:00+11ю01935 0.0 101210
03:00+11вюв22954 0.0 101315
06:00+11юв249681 0.0 1013114
09:00+17вюв3577100 0.0 1013399
12:00+21юв4652100 0.0 10121373
15:00+24вюв4743100 0.0 10112191
18:00+22вюв3858100 0.0 1010457
21:00+18вюв41371100 0.0 1009413
18 мая, вт
вт1800:00+16вюв51489100 1.3 1007493
03:00+16вюв41395100 1.6 1006401
06:00+16вюв4139557 0.0 1005413
09:00+20юв51277100 0.0 1004712
12:00+25ююв6105281 0.0 10041594
15:00+27ююв5104534 0.0 10032554
18:00+25ююз3658100 0.0 1002672
21:00+17юв249735 6.1 1005122
19 мая, ср
ср1900:00+17ююв51590100 1.3 1006777
03:00+15вюв279513 1.3 1004152
06:00+15юв3109581 0.0 1004344
09:00+17ююв398898 0.1 1005571
12:00+21ю4659100 0.0 10051167
15:00+23ююв3658100 0.6 10061475
18:00+17юв249286 7.9 1005191
21:00+16вюв119531 9.1 100513
20 мая, чт
чт2000:00+14ююв259833 1.8 1006106
03:00+13юв259898 1.8 1006115
06:00+14юв2597100 0.0 1006166
09:00+18в2484100 0.0 1006454
12:00+21в466960 0.4 10041189
15:00+17з2497100 5.6 1000142
18:00+17ююз499496 14.8 999599
21:00+14ю51097100 14.9 999537
21 мая, пт
пт2100:00+13ююз51296100 0.1 1000750
03:00+11юз51096100 0.1 1002656
06:00+10юз5993100 0.1 1004868
09:00+10зюз61294100 0.4 1007887
12:00+14зюз597994 0.6 1010958
15:00+18зюз58435 0.8 10112170
18:00+17юз4752100 0.0 10122115
21:00+13ююз4117014 0.1 1012413